Soldotna, AK

2:48 AM AKST on December 11, 2019 (GMT -0900)
Soldotna

Weather History for PASX - October, 2019

Change the Weather History Date:

Friday, October 4, 2019

  Actual Average Record
Temperature  
Mean Temperature 46 °F -  
Max Temperature 55 °F 46 °F 59 °F (2001)
Min Temperature 37 °F 32 °F 19 °F (1970)
Degree Days  
Heating Degree Days 19    
Moisture  
Dew Point 42 °F    
Average Humidity 74    
Maximum Humidity 96    
Minimum Humidity 64    
Precipitation  
Precipitation 0.00 in - - ()
Sea Level Pressure  
Sea Level Pressure 29.84 in    
Wind  
Wind Speed 10 mph (South)    
Max Wind Speed 21 mph    
Max Gust Speed 33 mph    
Visibility 10 miles    
Events Rain    
Averages and records for this station are not official NWS values.
T = Trace of Precipitation, MM = Missing Value Source: NWS Daily Summary

Daily Weather History Graph

Daily Weather History Graph

Search for Another Location

Airport or City:

Astronomy

Oct. 04, 2019 Rise Set
Actual Time 8:17 AM AKDT 7:26 PM AKDT
Civil Twilight 7:35 AM AKDT 8:08 PM AKDT
Nautical Twilight 6:46 AM AKDT 8:57 PM AKDT
Astronomical Twilight 5:54 AM AKDT 9:49 PM AKDT
Moon 4:37 PM AKDT (10/4) 10:26 PM AKDT (10/4)
Length of Visible Light 12h 33m
Length of Day
11h 09m
Waxing Crescent, 41% of the Moon is Illuminated
Oct 4
Waxing Crescent
Oct 5
First Quarter
Oct 13
Full
Oct 21
Last Quarter
Oct 27
New

Hourly Weather History & Observations

Time (AKDT) Temp. Windchill Dew Point Humidity Pressure Visibility Wind Dir Wind Speed Gust Speed Precip Events Conditions
12:56 AM 42.1 °F 38.4 °F 39.9 °F 92% 30.02 in 10.0 mi South 5.8 mph - N/A   Clear
1:56 AM 43.0 °F 41.3 °F 39.9 °F 89% 30.02 in 10.0 mi SSE 3.5 mph - N/A   Clear
2:56 AM 37.0 °F 33.3 °F 36.0 °F 96% 30.00 in 10.0 mi SE 4.6 mph - N/A   Clear
3:56 AM 43.0 °F 39.5 °F 39.9 °F 89% 29.99 in 10.0 mi SE 5.8 mph - N/A   Clear
4:56 AM 45.0 °F 40.6 °F 39.9 °F 82% 29.96 in 10.0 mi SSE 8.1 mph - 0.00 in Rain Light Rain
5:56 AM 46.0 °F 43.1 °F 39.9 °F 79% 29.93 in 10.0 mi SE 5.8 mph - 0.00 in   Scattered Clouds
6:56 AM 48.0 °F - 39.9 °F 74% 29.90 in 10.0 mi SSE 8.1 mph - N/A   Clear
7:56 AM 48.9 °F - 41.0 °F 74% 29.88 in 10.0 mi South 9.2 mph 18.4 mph N/A   Overcast
8:56 AM 51.1 °F - 39.9 °F 66% 29.86 in 10.0 mi South 12.7 mph 20.7 mph N/A   Overcast
9:56 AM 51.1 °F - 41.0 °F 68% 29.86 in 10.0 mi SSW 10.4 mph 18.4 mph N/A   Clear
10:52 AM 51.8 °F - 42.8 °F 71% 29.82 in 10.0 mi SSW 16.1 mph 25.3 mph N/A   Overcast
10:56 AM 51.1 °F - 42.1 °F 71% 29.85 in 10.0 mi SSW 13.8 mph 25.3 mph N/A   Overcast
11:24 AM 51.8 °F - 42.8 °F 71% 29.81 in 10.0 mi SSW 20.7 mph 29.9 mph N/A   Partly Cloudy
11:56 AM 51.1 °F - 42.1 °F 71% 29.85 in 10.0 mi SSW 13.8 mph 33.4 mph N/A   Partly Cloudy
12:56 PM 52.0 °F - 42.1 °F 69% 29.83 in 10.0 mi SSW 18.4 mph 29.9 mph N/A   Partly Cloudy
1:38 PM 51.8 °F - 42.8 °F 71% 29.80 in 10.0 mi SSW 12.7 mph 21.9 mph N/A   Mostly Cloudy
1:56 PM 52.0 °F - 42.1 °F 69% 29.82 in 10.0 mi SSW 16.1 mph 24.2 mph N/A   Overcast
2:56 PM 54.0 °F - 42.1 °F 64% 29.80 in 10.0 mi South 13.8 mph 28.8 mph N/A   Overcast
3:39 PM 53.6 °F - 42.8 °F 67% 29.75 in 10.0 mi SW 13.8 mph 25.3 mph N/A   Mostly Cloudy
3:56 PM 54.0 °F - 42.1 °F 64% 29.78 in 10.0 mi SSW 15.0 mph 28.8 mph N/A   Mostly Cloudy
4:56 PM 54.0 °F - 43.0 °F 66% 29.76 in 10.0 mi SSW 17.3 mph 25.3 mph N/A   Mostly Cloudy
5:56 PM 55.0 °F - 43.0 °F 64% 29.75 in 10.0 mi SSW 16.1 mph 26.5 mph N/A   Scattered Clouds
6:44 PM 53.6 °F - 44.6 °F 72% 29.72 in 10.0 mi SSW 17.3 mph 28.8 mph N/A   Mostly Cloudy
6:56 PM 53.1 °F - 44.1 °F 71% 29.75 in 10.0 mi SSW 16.1 mph 29.9 mph N/A   Overcast
7:56 PM 52.0 °F - 45.0 °F 77% 29.78 in 10.0 mi SSW 16.1 mph 25.3 mph N/A   Scattered Clouds
8:25 PM 51.8 °F - 44.6 °F 76% 29.75 in 10.0 mi SW 12.7 mph 20.7 mph N/A   Mostly Cloudy
8:56 PM 52.0 °F - 46.0 °F 80% 29.79 in 10.0 mi SSW 13.8 mph 25.3 mph 0.00 in   Mostly Cloudy
9:10 PM 51.8 °F - 46.4 °F 82% 29.75 in 10.0 mi SSW 13.8 mph 18.4 mph N/A   Partly Cloudy
9:56 PM 50.0 °F - 43.0 °F 77% 29.80 in 10.0 mi SW 8.1 mph 16.1 mph N/A   Clear
10:56 PM 48.0 °F - 39.9 °F 74% 29.83 in 10.0 mi SSW 6.9 mph - N/A   Clear
11:56 PM 46.0 °F 42.5 °F 37.9 °F 73% 29.85 in 10.0 mi South 6.9 mph - N/A   Clear